SES-11 (ECHOSTAR 105)   
1 42967U 17063A   19265.09146530 -.00000096  00000-0  00000+0 0  9991
2 42967   0.0251 244.4898 0003122 315.5108  88.6593  1.00271681  7134
FALCON 9 R/B            
1 42968U 17063B   19264.98924069  .00044263 -22661-6  15847-2 0  9995
2 42968  27.9873 301.4498 7237344 233.1219  36.8376  2.37641038 15561